Location: *
(48.4333°N, 5.0333°W)
Time: 06:28:59
(UTC+00:00)

XW-2C - Visible Passes

Search period start: 26 October 2021 00:00
Search period end: 05 November 2021 00:00
Orbit: 503 x 526 km, 97.5° (Epoch: 25 October)

Date Brightness Start Highest point End Pass type
(mag) Time Alt. Az. Time Alt. Az. Time Alt. Az.
26 Oct ? 05:51:53 10° NNE 05:55:15 31° E 05:58:35 10° SSE visible
26 Oct ? 18:09:37 10° SSW 18:12:49 27° W 18:16:01 10° NW visible
27 Oct ? 05:37:03 10° NE 05:39:59 22° E 05:42:54 10° SE visible
27 Oct ? 17:54:04 10° SSW 17:57:34 39° W 18:01:05 10° NNW visible
28 Oct ? 05:22:27 10° NE 05:24:41 15° E 05:26:55 10° SE visible
28 Oct ? 17:38:41 10° S 17:42:21 59° WSW 17:46:03 10° NNW visible
29 Oct ? 05:08:44 10° ENE 05:09:21 10° E 05:09:58 10° E visible
30 Oct ? 06:24:57 10° NNE 06:28:42 77° ESE 06:32:25 10° S visible
30 Oct ? 18:44:58 10° WSW 18:46:27 12° W 18:47:55 10° WNW visible
31 Oct ? 06:09:50 10° NNE 06:13:29 50° E 06:17:07 10° S visible
31 Oct ? 18:28:36 10° SW 18:31:07 17° W 18:33:39 10° NW visible
01 Nov ? 05:54:50 10° NNE 05:58:15 33° E 06:01:41 10° SSE visible
01 Nov ? 18:12:43 10° SSW 18:15:49 25° W 18:18:56 10° NW visible
02 Nov ? 05:39:57 10° NE 05:42:59 23° E 05:46:01 10° SSE visible
02 Nov ? 17:57:07 10° SSW 18:00:33 36° W 18:04:01 10° NNW visible
03 Nov ? 05:25:16 10° NE 05:27:41 16° E 05:30:06 10° SE visible
03 Nov ? 17:41:41 10° S 17:45:19 54° W 17:48:58 10° NNW visible
04 Nov ? 05:11:08 10° ENE 05:12:21 11° E 05:13:32 10° ESE visible
04 Nov ? 17:26:25 10° SSE 17:30:07 83° W 17:33:50 10° NNW visible
